1486807200.87,9033,10.38,73786.5,-3.67,-9.23,-11.37,0,*57
1486807202.1,9034,10.38,73786.5,-3.67,-9.23,-11.41,0,*51
1486807203.38,9035,10.44,73790.0,-3.67,-9.37,-11.55,0,*50
1486807204.66,9036,10.44,73784.8,-3.67,-9.45,-11.59,0,*5A
1486807205.93,9037,10.44,73786.8,-3.67,-9.45,-11.59,0,*5B
1486807207.21,9038,10.44,73780.8,-3.67,-9.45,-11.55,0,*58
1486807208.48,9039,10.44,73782.0,-3.71,-9.53,-11.59,0,*55
1486807209.74,9040,10.44,73790.0,-3.69,-9.41,-11.63,0,*58
1486807210.99,9041,10.44,73788.8,-3.69,-9.41,-11.51,0,*58
1486807212.19,9042,10.44,73792.3,-3.69,-9.27,-11.41,0,*5A
1486807213.47,9043,10.44,73788.8,-3.67,-9.37,-11.55,0,*51
1486807214.73,9044,10.44,73790.0,-3.69,-9.41,-11.51,0,*5D
1486807215.95,9045,10.38,73784.5,-3.69,-9.37,-11.45,0,*58
1486807217.16,9046,10.44,73788.0,-3.69,-9.23,-11.45,0,*5E
1486807218.36,9047,10.44,73786.5,-3.69,-9.23,-11.41,0,*5B
1486807219.62,9048,10.44,73790.3,-3.69,-9.15,-11.29,0,*5F
1486807220.88,9049,10.44,73788.3,-3.69,-9.15,-11.29,0,*5E
1486807222.14,9050,10.44,73786.8,-3.69,-9.11,-11.29,0,*52
1486807223.34,9051,10.44,73790.5,-3.69,-9.01,-11.19,0,*51
1486807224.55,9052,10.44,73788.8,-3.69,-9.01,-11.15,0,*5E
1486807225.76,9053,10.44,73790.3,-3.69,-9.01,-11.15,0,*5F
1486807226.99,9054,10.44,73790.3,-3.69,-9.11,-11.19,0,*55
1486807228.22,9055,10.44,73788.3,-3.67,-9.05,-11.11,0,*57
1486807229.45,9056,10.38,73790.3,-3.67,-9.05,-11.11,0,*54
1486807230.68,9057,10.44,73788.8,-3.67,-9.05,-11.11,0,*55
1486807231.91,9058,10.44,73790.8,-3.67,-9.05,-11.11,0,*5A
1486807233.14,9059,10.44,73792.8,-3.67,-8.93,-11.11,0,*55
1486807234.37,9060,10.44,73790.5,-3.67,-8.97,-11.15,0,*5F
1486807235.59,9061,10.44,73790.0,-3.67,-8.97,-11.11,0,*5A
1486807236.83,9062,10.44,73790.8,-3.67,-8.93,-11.01,0,*5C
1486807238.06,9063,10.44,73788.0,-3.67,-8.93,-11.01,0,*5D
1486807239.29,9064,10.44,73788.5,-3.67,-8.97,-11.11,0,*5F
1486807240.54,9065,10.44,73788.5,-3.67,-8.81,-10.97,0,*56
1486807241.76,9066,10.44,73788.5,-3.65,-8.85,-10.97,0,*53
1486807242.97,9067,10.44,73790.0,-3.65,-8.85,-10.97,0,*52
1486807244.17,9068,10.44,73792.0,-3.65,-8.71,-10.89,0,*59
1486807245.38,9069,10.44,73790.8,-3.65,-8.67,-10.89,0,*5F
1486807246.6,9070,10.38,73784.8,-3.65,-8.81,-10.89,0,*5F
1486807247.85,9071,10.44,73790.5,-3.67,-8.81,-10.89,0,*5C
1486807249.06,9072,10.44,73786.3,-3.65,-8.71,-10.89,0,*52
1486807250.26,9073,10.44,73786.8,-3.65,-8.67,-10.89,0,*54
1486807251.46,9074,10.44,73786.3,-3.65,-8.71,-10.85,0,*58
1486807252.69,9075,10.44,73788.0,-3.61,-8.67,-10.79,0,*59
1486807253.9,9076,10.44,73784.8,-3.61,-8.89,-10.97,0,*5A
1486807255.12,9077,10.44,73788.0,-3.61,-8.81,-10.93,0,*57
1486807256.36,9078,10.38,73784.5,-3.61,-8.93,-11.07,0,*57
1486807257.56,9079,10.44,73788.5,-3.61,-8.89,-10.93,0,*51
1486807258.78,9080,10.44,73790.5,-3.61,-8.89,-10.97,0,*53
1486807260.0,9081,10.44,73788.0,-3.61,-8.81,-10.93,0,*5E
1486807261.21,9082,10.44,73786.5,-3.61,-8.89,-10.97,0,*51
1486807262.41,9083,10.44,73786.3,-3.61,-9.05,-11.11,0,*5A
1486807263.65,9084,10.44,73788.0,-3.61,-8.89,-11.07,0,*5F
1486807264.89,9085,10.44,73786.8,-3.61,-8.89,-11.07,0,*5E
1486807266.12,9086,10.44,73784.0,-3.61,-8.89,-11.07,0,*5D
1486807267.35,9087,10.44,73788.5,-3.61,-8.81,-10.97,0,*5C
1486807268.56,9088,10.44,73786.5,-3.61,-8.89,-10.97,0,*5B
1486807269.77,9089,10.44,73784.3,-3.61,-8.89,-10.93,0,*5E
1486807270.99,9090,10.44,73790.3,-3.59,-8.75,-10.89,0,*55
1486807272.19,9091,10.44,73790.0,-3.61,-8.75,-10.93,0,*54
1486807273.42,9092,10.44,73788.8,-3.61,-8.81,-10.97,0,*58
1486807274.63,9093,10.44,73788.3,-3.61,-8.89,-10.93,0,*55
1486807275.86,9094,10.44,73788.3,-3.59,-8.85,-10.89,0,*5E
1486807277.07,9095,10.44,73790.0,-3.61,-8.93,-10.93,0,*58
1486807278.3,9096,10.44,73794.3,-3.59,-8.89,-10.89,0,*50
1486807279.5,9097,10.44,73792.8,-3.61,-8.75,-10.89,0,*59
1486807280.7,9098,10.44,73794.8,-3.61,-8.75,-10.89,0,*56
1486807281.92,9099,10.44,73794.3,-3.59,-8.75,-10.89,0,*5C
1486807283.16,9100,10.44,73792.0,-3.59,-8.89,-11.01,0,*5F
1486807284.39,9101,10.44,73792.0,-3.59,-8.85,-10.93,0,*58
1486807285.62,9102,10.44,73792.5,-3.59,-8.85,-10.93,0,*5B
1486807286.84,9103,10.44,73794.0,-3.59,-8.75,-10.89,0,*5E
1486807288.07,9104,10.44,73794.0,-3.61,-8.81,-10.97,0,*56
1486807289.3,9105,10.44,73792.5,-3.59,-8.85,-10.93,0,*5C
1486807290.53,9106,10.44,73788.5,-3.59,-8.85,-10.89,0,*54
1486807291.74,9107,10.44,73788.8,-3.57,-8.75,-10.93,0,*5F
1486807292.94,9108,10.44,73792.5,-3.57,-8.71,-10.89,0,*5F
1486807294.15,9109,10.44,73792.3,-3.57,-8.71,-10.89,0,*5E
1486807295.36,9110,10.44,73792.5,-3.57,-8.89,-11.01,0,*50
1486807296.57,9111,10.44,73794.5,-3.57,-8.89,-11.01,0,*51
1486807297.8,9112,10.44,73794.3,-3.57,-8.85,-11.07,0,*58
1486807299.01,9113,10.44,73788.8,-3.57,-9.01,-11.19,0,*5B
1486807300.27,9114,10.44,73790.3,-3.57,-9.11,-11.29,0,*5E
1486807301.52,9115,10.44,73788.3,-3.57,-9.11,-11.33,0,*54
1486807302.77,9116,10.44,73788.8,-3.57,-9.15,-11.33,0,*53
1486807304.02,9117,10.44,73794.3,-3.57,-9.15,-11.33,0,*52
1486807305.28,9118,10.44,73792.3,-3.57,-9.15,-11.33,0,*5D
1486807306.53,9119,10.44,73792.5,-3.59,-9.23,-11.29,0,*5C
1486807307.78,9120,10.44,73794.8,-3.59,-9.27,-11.37,0,*5D
1486807309.05,9121,10.44,73788.5,-3.59,-9.11,-11.33,0,*5D
1486807310.25,9122,10.44,73790.8,-3.57,-9.23,-11.45,0,*50
1486807311.5,9123,10.44,73794.0,-3.59,-9.23,-11.37,0,*5A
1486807312.75,9124,10.44,73794.8,-3.59,-9.23,-11.37,0,*5D
1486807314.0,9125,10.44,73792.5,-3.59,-9.23,-11.37,0,*5C
1486807315.25,9126,10.44,73794.0,-3.59,-9.15,-11.45,0,*5F
1486807316.51,9127,10.44,73792.3,-3.57,-9.15,-11.29,0,*5A
1486807317.77,9128,10.44,73794.8,-3.57,-9.11,-11.29,0,*51
1486807319.0,9129,10.44,73796.0,-3.61,-9.11,-11.23,0,*5F
1486807320.2,9130,10.44,73792.5,-3.57,-8.97,-11.15,0,*58
1486807321.43,9131,10.44,73794.8,-3.55,-8.85,-10.97,0,*53
1486807322.64,9132,10.44,73796.8,-3.57,-9.01,-11.15,0,*54
1486807323.89,9133,10.44,73796.3,-3.59,-8.97,-11.07,0,*56
1486807325.13,9134,10.44,73792.0,-3.57,-8.89,-11.07,0,*50
1486807326.34,9135,10.44,73792.5,-3.57,-8.85,-11.01,0,*5B
1486807327.54,9136,10.44,73792.3,-3.57,-8.97,-11.15,0,*5E
1486807328.74,9137,10.44,73798.0,-3.57,-9.01,-11.15,0,*51
1486807329.97,9138,10.44,73792.8,-3.55,-8.93,-11.01,0,*53
1486807331.2,9139,10.44,73792.3,-3.57,-8.97,-11.07,0,*52
1486807332.44,9140,10.44,73792.5,-3.57,-9.01,-11.07,0,*52
1486807333.67,9141,10.44,73794.3,-3.57,-9.01,-11.07,0,*53
1486807334.88,9142,10.44,73792.8,-3.57,-8.97,-11.01,0,*58
1486807336.11,9143,10.44,73790.5,-3.57,-8.89,-11.07,0,*50
1486807337.34,9144,10.44,73794.0,-3.57,-8.97,-11.07,0,*58
1486807338.54,9145,10.44,73792.3,-3.57,-8.97,-11.15,0,*5A
1486807339.75,9146,10.44,73794.3,-3.57,-9.01,-11.15,0,*57
1486807340.96,9147,10.44,73794.5,-3.57,-9.01,-11.19,0,*5A
1486807342.21,9148,10.44,73788.8,-3.57,-9.11,-11.29,0,*57
1486807343.47,9149,10.44,73792.0,-3.57,-9.11,-11.29,0,*56
1486807344.68,9150,10.44,73790.8,-3.57,-9.01,-11.19,0,*5C
1486807345.88,9151,10.44,73788.3,-3.57,-9.01,-11.15,0,*51
1486807347.14,9152,10.44,73792.0,-3.57,-9.11,-11.29,0,*5C
1486807348.4,9153,10.44,73792.0,-3.57,-9.11,-11.29,0,*5D
1486807349.63,9154,10.44,73792.3,-3.57,-9.11,-11.19,0,*59
1486807350.89,9155,10.44,73794.8,-3.57,-9.11,-11.29,0,*5B
1486807352.12,9156,10.44,73790.0,-3.57,-9.11,-11.19,0,*5B
1486807353.34,9157,10.44,73792.3,-3.55,-9.05,-11.15,0,*51
1486807354.57,9158,10.38,73790.0,-3.57,-9.11,-11.19,0,*55
1486807355.79,9159,10.44,73794.0,-3.55,-9.05,-11.15,0,*5F
1486807357.02,9160,10.44,73794.3,-3.55,-9.05,-11.15,0,*55
1486807358.25,9161,10.44,73794.0,-3.59,-9.01,-11.19,0,*50
1486807359.47,9162,10.44,73794.3,-3.55,-8.97,-11.23,0,*58
1486807360.69,9163,10.44,73794.8,-3.55,-8.97,-11.23,0,*59
1486807361.94,9164,10.44,73794.0,-3.57,-9.11,-11.33,0,*52
1486807363.19,9165,10.44,73794.0,-3.57,-9.15,-11.33,0,*57
1486807364.44,9166,10.44,73792.8,-3.57,-9.15,-11.33,0,*54
1486807365.72,9167,10.44,73790.8,-3.55,-9.11,-11.29,0,*58
1486807366.97,9168,10.44,73790.8,-3.57,-9.15,-11.33,0,*5A
1486807368.23,9169,10.44,73788.8,-3.57,-9.15,-11.33,0,*5B
1486807369.45,9170,10.44,73790.5,-3.57,-9.27,-11.37,0,*56
1486807370.68,9171,10.44,73794.0,-3.57,-9.23,-11.37,0,*53
1486807371.9,9172,10.44,73794.5,-3.57,-9.23,-11.33,0,*54
1486807373.12,9173,10.44,73788.5,-3.57,-9.23,-11.33,0,*55
1486807374.37,9174,10.44,73794.8,-3.57,-9.15,-11.33,0,*57
1486807375.57,9175,10.44,73788.8,-3.57,-9.23,-11.45,0,*52
1486807376.8,9176,10.38,73790.0,-3.57,-9.27,-11.37,0,*50
1486807378.02,9177,10.44,73790.5,-3.57,-9.23,-11.37,0,*55
1486807379.24,9178,10.44,73792.5,-3.57,-9.23,-11.33,0,*5E
1486807380.47,9179,10.44,73792.5,-3.57,-9.23,-11.37,0,*5B
1486807381.72,9180,10.44,73792.8,-3.57,-9.15,-11.33,0,*5C
1486807382.98,9181,10.44,73792.5,-3.57,-9.11,-11.29,0,*52
1486807384.21,9182,10.44,73794.0,-3.57,-9.11,-11.19,0,*52
1486807385.44,9183,10.44,73792.8,-3.57,-9.11,-11.15,0,*5F
1486807386.64,9184,10.44,73788.8,-3.57,-8.97,-11.15,0,*57
1486807387.85,9185,10.44,73790.5,-3.57,-9.01,-11.19,0,*54
1486807389.07,9186,10.44,73788.5,-3.57,-9.23,-11.33,0,*5F
1486807390.29,9187,10.44,73792.3,-3.55,-9.19,-11.41,0,*50
1486807391.5,9188,10.38,73790.8,-3.57,-9.27,-11.45,0,*54
1486807392.7,9189,10.44,73790.5,-3.57,-9.27,-11.45,0,*55
1486807393.92,9190,10.44,73790.0,-3.57,-9.27,-11.37,0,*58
1486807395.17,9191,10.38,73790.8,-3.57,-9.37,-11.51,0,*58
1486807396.43,9192,10.44,73792.8,-3.57,-9.37,-11.59,0,*53
1486807397.68,9193,10.44,73790.0,-3.57,-9.49,-11.63,0,*52
1486807398.95,9194,10.44,73790.3,-3.59,-9.57,-11.73,0,*55
1486807400.2,9195,10.44,73790.0,-3.57,-9.53,-11.63,0,*5F
1486807401.47,9196,10.44,73788.8,-3.59,-9.41,-11.59,0,*58
1486807402.72,9197,10.44,73790.8,-3.59,-9.27,-11.51,0,*51
1486807403.97,9198,10.44,73788.0,-3.59,-9.27,-11.37,0,*5E
1486807405.2,9199,10.38,73786.8,-3.59,-9.23,-11.45,0,*5E
1486807406.47,9200,10.44,73788.0,-3.59,-9.37,-11.51,0,*5D
1486807407.74,9201,10.38,73786.5,-3.59,-9.53,-11.59,0,*56
1486807409.01,9202,10.38,73784.3,-3.59,-9.49,-11.59,0,*5E
1486807410.28,9203,10.38,73786.3,-3.59,-9.53,-11.59,0,*54
1486807411.52,9204,10.44,73786.0,-3.59,-9.67,-11.77,0,*58
1486807412.79,9205,10.44,73786.8,-3.59,-9.53,-11.77,0,*5E
1486807414.03,9206,10.44,73788.5,-3.61,-9.57,-11.81,0,*5B
1486807415.28,9207,10.44,73788.8,-3.59,-9.71,-11.85,0,*51
1486807416.52,9208,10.44,73788.5,-3.59,-9.67,-11.85,0,*59
1486807417.79,9209,10.44,73788.0,-3.59,-9.57,-11.85,0,*5B
1486807419.05,9210,10.44,73788.0,-3.59,-9.57,-11.73,0,*5A
1486807420.32,9211,10.44,73790.0,-3.59,-9.57,-11.73,0,*5B
1486807421.55,9212,10.44,73794.0,-3.61,-9.57,-11.77,0,*57
1486807422.8,9213,10.44,73790.8,-3.61,-9.57,-11.67,0,*57
1486807424.05,9214,10.44,73792.3,-3.61,-9.53,-11.67,0,*54
1486807425.29,9215,10.44,73788.8,-3.61,-9.53,-11.67,0,*55
1486807426.57,9216,10.44,73790.0,-3.59,-9.41,-11.63,0,*5A
1486807427.83,9217,10.44,73790.0,-3.61,-9.45,-11.63,0,*54
1486807429.11,9218,10.38,73786.5,-3.59,-9.49,-11.63,0,*5C
1486807430.37,9219,10.44,73790.5,-3.61,-9.37,-11.63,0,*5F
1486807431.64,9220,10.44,73788.3,-3.59,-9.37,-11.51,0,*5F
1486807432.9,9221,10.44,73784.8,-3.61,-9.45,-11.63,0,*51
1486807434.17,9222,10.44,73790.0,-3.59,-9.49,-11.59,0,*5C
1486807435.44,9223,10.38,73784.3,-3.59,-9.37,-11.59,0,*54
1486807436.67,9224,10.44,73786.3,-3.59,-9.27,-11.45,0,*5F
1486807437.92,9225,10.44,73790.3,-3.59,-9.27,-11.51,0,*5B
1486807439.19,9226,10.44,73786.5,-3.59,-9.41,-11.59,0,*50
1486807440.45,9227,10.44,73790.0,-3.61,-9.45,-11.63,0,*57
1486807441.72,9228,10.44,73784.0,-3.59,-9.41,-11.51,0,*56
1486807442.97,9229,10.44,73786.3,-3.59,-9.27,-11.37,0,*57
1486807444.2,9230,10.44,73784.3,-3.61,-9.27,-11.37,0,*54
1486807445.42,9231,10.38,73780.3,-3.61,-9.31,-11.51,0,*52
1486807446.7,9232,10.44,73786.0,-3.59,-9.15,-11.33,0,*58
1486807447.98,9233,10.38,73786.3,-3.59,-9.15,-11.37,0,*5D
1486807449.22,9234,10.44,73786.5,-3.59,-9.23,-11.37,0,*5F
1486807450.43,9235,10.44,73782.0,-3.61,-9.27,-11.41,0,*50
1486807451.71,9236,10.44,73784.3,-3.59,-9.15,-11.37,0,*58
1486807452.98,9237,10.44,73784.0,-3.59,-9.15,-11.33,0,*5D
1486807454.26,9238,10.44,73786.3,-3.59,-9.11,-11.33,0,*56
1486807455.53,9239,10.44,73784.8,-3.59,-9.11,-11.33,0,*57
1486807456.81,9240,10.44,73786.3,-3.59,-9.15,-11.33,0,*5D
1486807458.09,9241,10.44,73782.3,-3.59,-9.15,-11.37,0,*58
1486807459.29,9242,10.44,73786.3,-3.61,-9.31,-11.41,0,*57
1486807460.55,9243,10.44,73784.0,-3.59,-9.15,-11.45,0,*5F
1486807461.82,9244,10.44,73782.5,-3.59,-9.11,-11.37,0,*59
1486807463.1,9245,10.44,73786.3,-3.59,-9.11,-11.29,0,*57
1486807464.38,9246,10.44,73784.3,-3.59,-9.11,-11.33,0,*5F
1486807465.63,9247,10.38,73784.3,-3.59,-9.01,-11.33,0,*5F
1486807466.89,9248,10.44,73788.5,-3.61,-9.15,-11.37,0,*5A
1486807468.16,9249,10.44,73788.5,-3.59,-9.11,-11.33,0,*50
1486807469.43,9250,10.44,73790.3,-3.59,-9.11,-11.33,0,*58
1486807470.64,9251,10.44,73786.0,-3.57,-9.01,-11.19,0,*5E
1486807471.87,9252,10.44,73786.0,-3.57,-9.01,-11.29,0,*5E
1486807473.15,9253,10.44,73788.8,-3.59,-9.15,-11.37,0,*5B
1486807474.41,9254,10.44,73784.3,-3.59,-9.15,-11.45,0,*59
1486807475.64,9255,10.44,73788.8,-3.57,-9.15,-11.45,0,*56
1486807476.9,9256,10.38,73786.5,-3.55,-9.11,-11.41,0,*57
1486807478.13,9257,10.44,73788.5,-3.57,-9.15,-11.45,0,*54
1486807479.36,9258,10.44,73788.3,-3.57,-9.27,-11.51,0,*5F
1486807480.58,9259,10.44,73790.3,-3.57,-9.27,-11.59,0,*56
1486807481.81,9260,10.44,73788.8,-3.57,-9.23,-11.51,0,*50
1486807483.03,9261,10.44,73786.5,-3.55,-9.23,-11.41,0,*52
1486807484.29,9262,10.38,73786.8,-3.57,-9.15,-11.51,0,*57
1486807485.55,9263,10.44,73788.3,-3.57,-9.15,-11.37,0,*56
1486807486.79,9264,10.44,73790.5,-3.55,-9.05,-11.33,0,*56
1486807488.04,9265,10.44,73784.0,-3.57,-9.11,-11.37,0,*54
1486807489.3,9266,10.44,73788.0,-3.57,-9.15,-11.37,0,*53
1486807490.56,9267,10.44,73786.8,-3.57,-9.11,-11.29,0,*59
1486807491.79,9268,10.44,73788.0,-3.57,-9.11,-11.45,0,*5C
1486807493.05,9269,10.44,73788.0,-3.57,-9.15,-11.37,0,*5C
1486807494.28,9270,10.44,73790.3,-3.57,-9.15,-11.45,0,*51
1486807495.5,9271,10.44,73784.3,-3.57,-9.23,-11.51,0,*50
1486807496.73,9272,10.44,73788.5,-3.57,-9.27,-11.59,0,*5F
1486807498.0,9273,10.44,73790.8,-3.55,-9.37,-11.59,0,*5D
1486807499.23,9274,10.44,73790.5,-3.55,-9.19,-11.45,0,*5B
1486807500.5,9275,10.44,73786.0,-3.55,-9.11,-11.33,0,*53
1486807501.75,9276,10.44,73784.3,-3.57,-9.11,-11.37,0,*56
1486807503.01,9277,10.44,73786.0,-3.57,-9.11,-11.37,0,*57
1486807504.26,9278,10.44,73786.3,-3.57,-9.11,-11.33,0,*5C
1486807505.51,9279,10.44,73784.3,-3.57,-9.11,-11.29,0,*56
1486807506.77,9280,10.44,73786.8,-3.57,-9.15,-11.37,0,*5B
1486807508.01,9281,10.44,73786.3,-3.55,-9.05,-11.33,0,*5D
1486807509.27,9282,10.44,73790.0,-3.57,-9.15,-11.37,0,*59
1486807510.5,9283,10.44,73786.8,-3.57,-9.11,-11.45,0,*59
1486807511.73,9284,10.38,73782.0,-3.55,-9.19,-11.41,0,*50
1486807512.98,9285,10.44,73786.0,-3.57,-9.11,-11.37,0,*5A
1486807514.24,9286,10.44,73784.0,-3.57,-9.11,-11.37,0,*59
1486807515.49,9287,10.38,73784.0,-3.57,-9.15,-11.51,0,*5C
1486807516.72,9288,10.44,73784.5,-3.55,-9.19,-11.41,0,*5C
1486807517.92,9289,10.44,73784.8,-3.57,-9.23,-11.45,0,*52
1486807519.17,9290,10.44,73784.3,-3.57,-9.11,-11.37,0,*5E
1486807520.43,9291,10.44,73784.0,-3.55,-9.11,-11.41,0,*5C
1486807521.65,9292,10.44,73782.3,-3.57,-9.27,-11.59,0,*51
1486807522.9,9293,10.44,73786.8,-3.55,-9.31,-11.55,0,*59
1486807524.15,9294,10.44,73786.0,-3.55,-9.31,-11.55,0,*5E
1486807525.42,9295,10.44,73780.0,-3.55,-9.45,-11.59,0,*50
1486807526.69,9296,10.44,73780.8,-3.55,-9.45,-11.73,0,*5B
1486807527.94,9297,10.38,73780.0,-3.55,-9.31,-11.55,0,*5D
1486807529.19,9298,10.44,73784.8,-3.57,-9.37,-11.59,0,*5A
1486807530.44,9299,10.44,73782.3,-3.55,-9.23,-11.55,0,*50
1486807531.66,9300,10.44,73784.0,-3.57,-9.23,-11.51,0,*57
1486807532.92,9301,10.44,73784.8,-3.57,-9.15,-11.37,0,*53
1486807534.17,9302,10.44,73784.8,-3.55,-9.11,-11.45,0,*53
1486807535.42,9303,10.44,73780.5,-3.55,-9.11,-11.41,0,*56
1486807536.69,9304,10.44,73784.5,-3.55,-9.11,-11.33,0,*54
1486807537.95,9305,10.44,73786.8,-3.55,-9.11,-11.41,0,*50
1486807539.2,9306,10.44,73784.3,-3.57,-9.11,-11.33,0,*54
1486807540.42,9307,10.44,73784.3,-3.55,-8.97,-11.23,0,*59
1486807541.64,9308,10.44,73788.8,-3.55,-8.97,-11.23,0,*56
1486807542.87,9309,10.44,73784.8,-3.55,-8.93,-11.15,0,*56
1486807544.09,9310,10.44,73788.5,-3.55,-8.93,-11.11,0,*5A
1486807545.32,9311,10.44,73784.5,-3.55,-8.85,-11.11,0,*5C
1486807546.54,9312,10.44,73786.3,-3.55,-8.85,-11.15,0,*5B
1486807547.77,9313,10.44,73784.0,-3.55,-8.85,-11.11,0,*5E
1486807549.0,9314,10.44,73786.3,-3.55,-8.93,-11.15,0,*5A
1486807550.22,9315,10.44,73786.8,-3.55,-8.93,-11.15,0,*5B
1486807551.44,9316,10.44,73784.0,-3.55,-8.97,-11.23,0,*59
1486807552.66,9317,10.44,73786.0,-3.55,-8.97,-11.23,0,*58
1486807553.91,9318,10.44,73786.8,-3.55,-8.97,-11.29,0,*5D
1486807555.15,9319,10.44,73786.3,-3.55,-8.97,-11.33,0,*57
1486807556.35,9320,10.44,73786.5,-3.53,-8.97,-11.23,0,*5A
1486807557.57,9321,10.44,73786.0,-3.53,-8.97,-11.29,0,*51
1486807558.8,9322,10.44,73784.3,-3.53,-9.31,-11.55,0,*54
1486807560.0,9323,10.44,73786.0,-3.53,-9.23,-11.45,0,*57
1486807561.25,9324,10.44,73784.5,-3.55,-9.31,-11.55,0,*54
1486807562.48,9325,10.44,73786.3,-3.53,-9.23,-11.55,0,*50
1486807563.73,9326,10.44,73790.3,-3.51,-9.27,-11.55,0,*55
1486807564.93,9327,10.44,73788.3,-3.53,-9.31,-11.45,0,*50
1486807566.13,9328,10.44,73786.3,-3.53,-9.19,-11.45,0,*55
1486807567.33,9329,10.44,73790.8,-3.53,-9.23,-11.45,0,*5D
1486807568.53,9330,10.44,73786.5,-3.53,-9.23,-11.45,0,*55
1486807569.77,9331,10.44,73786.3,-3.53,-9.11,-11.41,0,*51
1486807570.99,9332,10.44,73784.5,-3.53,-9.19,-11.33,0,*5F
1486807572.22,9333,10.44,73790.0,-3.53,-9.11,-11.45,0,*57
1486807573.45,9334,10.44,73790.3,-3.53,-9.11,-11.41,0,*54
1486807574.66,9335,10.38,73784.5,-3.53,-9.19,-11.41,0,*5D
1486807575.86,9336,10.44,73790.0,-3.53,-9.19,-11.41,0,*5E
1486807577.07,9337,10.44,73784.8,-3.53,-9.19,-11.41,0,*5F
1486807578.33,9338,10.44,73788.0,-3.51,-9.15,-11.41,0,*5E
1486807579.53,9339,10.44,73790.3,-3.53,-9.05,-11.41,0,*5C
1486807580.81,9340,10.44,73790.0,-3.51,-9.15,-11.51,0,*50
1486807582.04,9341,10.44,73786.0,-3.53,-9.23,-11.55,0,*52
1486807583.29,9342,10.44,73784.8,-3.51,-9.19,-11.51,0,*5E
1486807584.52,9343,10.44,73786.5,-3.53,-9.31,-11.55,0,*53
1486807585.72,9344,10.44,73788.0,-3.53,-9.19,-11.45,0,*5F
1486807586.92,9345,10.44,73786.5,-3.53,-9.19,-11.45,0,*5E
1486807588.18,9346,10.44,73786.0,-3.51,-9.15,-11.45,0,*53
1486807589.38,9347,10.44,73790.3,-3.53,-9.23,-11.45,0,*55
1486807590.64,9348,10.44,73784.3,-3.51,-9.15,-11.41,0,*59
1486807591.9,9349,10.44,73786.5,-3.51,-9.15,-11.41,0,*58
1486807593.15,9350,10.44,73788.3,-3.51,-9.27,-11.63,0,*51
1486807594.35,9351,10.44,73786.5,-3.53,-9.19,-11.45,0,*5B
1486807595.59,9352,10.44,73788.5,-3.53,-9.11,-11.41,0,*54
1486807596.85,9353,10.44,73786.0,-3.51,-9.15,-11.41,0,*53
1486807598.1,9354,10.44,73788.3,-3.51,-9.19,-11.55,0,*5D
1486807599.3,9355,10.44,73786.3,-3.53,-9.19,-11.45,0,*5F
1486807600.53,9356,10.44,73786.5,-3.53,-9.23,-11.55,0,*54
1486807601.78,9357,10.44,73782.0,-3.53,-9.45,-11.59,0,*59
1486807603.02,9358,10.44,73784.5,-3.53,-9.49,-11.73,0,*52
1486807604.3,9359,10.44,73782.0,-3.51,-9.41,-11.67,0,*5C
1486807605.58,9360,10.44,73784.5,-3.51,-9.45,-11.63,0,*56
1486807606.83,9361,10.44,73786.8,-3.51,-9.31,-11.55,0,*51
1486807608.08,9362,10.44,73784.3,-3.53,-9.37,-11.59,0,*5A
1486807609.33,9363,10.44,73784.0,-3.53,-9.37,-11.59,0,*5B
1486807610.58,9364,10.44,73784.8,-3.53,-9.45,-11.59,0,*59
1486807611.84,9365,10.44,73784.8,-3.53,-9.37,-11.59,0,*5D
1486807613.06,9366,10.44,73786.5,-3.53,-9.31,-11.59,0,*58
1486807614.29,9367,10.44,73784.0,-3.53,-9.27,-11.51,0,*56
1486807615.51,9368,10.44,73784.0,-3.53,-9.19,-11.55,0,*50
1486807616.74,9369,10.44,73786.5,-3.53,-9.19,-11.55,0,*51
1486807618.02,9370,10.44,73786.0,-3.51,-9.15,-11.51,0,*53
1486807619.28,9371,10.44,73788.5,-3.51,-9.15,-11.41,0,*53
1486807620.49,9372,10.44,73790.8,-3.53,-9.19,-11.41,0,*5E
1486807621.77,9373,10.44,73786.3,-3.51,-9.15,-11.51,0,*50
1486807622.97,9374,10.38,73782.0,-3.53,-9.23,-11.45,0,*55
1486807624.22,9375,10.44,73784.3,-3.51,-9.19,-11.37,0,*5A
1486807625.44,9376,10.38,73784.0,-3.53,-9.19,-11.55,0,*5F
1486807626.67,9377,10.44,73786.5,-3.51,-9.19,-11.41,0,*59
1486807627.93,9378,10.44,73790.8,-3.51,-9.15,-11.41,0,*5A
1486807629.21,9379,10.44,73784.8,-3.51,-9.15,-11.51,0,*5A
1486807630.44,9380,10.44,73784.5,-3.51,-9.19,-11.41,0,*51
1486807631.7,9381,10.44,73788.0,-3.51,-9.15,-11.41,0,*5C
1486807632.92,9382,10.44,73780.5,-3.53,-9.23,-11.59,0,*51
1486807634.17,9383,10.44,73786.5,-3.51,-9.31,-11.55,0,*5D
1486807635.42,9384,10.44,73788.3,-3.51,-9.31,-11.55,0,*5A
1486807636.67,9385,10.44,73788.0,-3.51,-9.31,-11.55,0,*5B
1486807637.93,9386,10.44,73788.3,-3.51,-9.27,-11.55,0,*5F
1486807639.15,9387,10.44,73790.5,-3.53,-9.31,-11.59,0,*57
1486807640.4,9388,10.44,73788.0,-3.53,-9.45,-11.73,0,*53
1486807641.68,9389,10.44,73786.0,-3.51,-9.41,-11.55,0,*50
1486807642.93,9390,10.44,73790.3,-3.53,-9.37,-11.67,0,*5A
1486807644.18,9391,10.44,73786.5,-3.53,-9.61,-11.85,0,*54
1486807645.42,9392,10.44,73790.0,-3.53,-9.49,-11.73,0,*54
1486807646.67,9393,10.44,73784.8,-3.53,-9.53,-11.59,0,*56
1486807647.95,9394,10.44,73788.0,-3.51,-9.41,-11.55,0,*5C
1486807649.2,9395,10.44,73788.5,-3.53,-9.37,-11.67,0,*5F
1486807650.43,9396,10.44,73788.0,-3.53,-9.31,-11.59,0,*57
1486807651.68,9397,10.44,73788.5,-3.53,-9.49,-11.67,0,*54
1486807652.94,9398,10.44,73790.3,-3.51,-9.57,-11.77,0,*57
1486807654.16,9399,10.44,73792.0,-3.53,-9.67,-11.93,0,*5D
1486807655.39,9400,10.44,73790.3,-3.53,-9.75,-11.93,0,*59
1486807656.62,9401,10.44,73788.3,-3.53,-9.75,-12.07,0,*56
1486807657.83,9402,10.44,73790.5,-3.53,-9.89,-11.97,0,*5C
1486807659.06,9403,10.44,73788.3,-3.53,-9.79,-11.97,0,*52
1486807660.28,9404,10.44,73786.3,-3.53,-9.67,-11.85,0,*59
1486807661.53,9405,10.44,73786.8,-3.55,-9.75,-11.93,0,*5A
1486807662.79,9406,10.44,73788.3,-3.55,-9.53,-11.73,0,*53
1486807664.06,9407,10.44,73794.0,-3.55,-9.53,-11.85,0,*5B
1486807665.33,9408,10.44,73788.0,-3.55,-9.45,-11.73,0,*5A
1486807666.6,9409,10.44,73784.8,-3.55,-9.49,-11.73,0,*57
1486807667.86,9410,10.44,73786.5,-3.55,-9.53,-11.77,0,*50
1486807669.11,9411,10.44,73786.5,-3.53,-9.45,-11.73,0,*54
1486807670.36,9412,10.44,73784.3,-3.53,-9.45,-11.67,0,*52
1486807671.63,9413,10.44,73786.8,-3.55,-9.45,-11.59,0,*58
1486807672.85,9414,10.44,73786.5,-3.53,-9.31,-11.59,0,*5A
1486807674.11,9415,10.44,73788.5,-3.53,-9.37,-11.59,0,*5D
1486807675.33,9416,10.44,73790.8,-3.53,-9.31,-11.55,0,*54
1486807676.58,9417,10.44,73788.8,-3.53,-9.49,-11.73,0,*5E
1486807677.83,9418,10.38,73784.8,-3.53,-9.49,-11.73,0,*51
1486807679.08,9419,10.44,73788.8,-3.53,-9.45,-11.59,0,*54
1486807680.3,9420,10.44,73788.3,-3.53,-9.31,-11.59,0,*5D
1486807681.53,9421,10.44,73790.8,-3.53,-9.31,-11.59,0,*5C
1486807682.78,9422,10.44,73784.5,-3.53,-9.37,-11.67,0,*54
1486807684.01,9423,10.44,73786.8,-3.53,-9.31,-11.67,0,*53
1486807685.26,9424,10.44,73784.8,-3.51,-9.27,-11.55,0,*50
1486807686.48,9425,10.44,73786.5,-3.53,-9.31,-11.59,0,*58
1486807687.71,9426,10.44,73786.8,-3.53,-9.31,-11.59,0,*5B
1486807688.94,9427,10.44,73784.0,-3.53,-9.31,-11.59,0,*5A
1486807690.19,9428,10.44,73786.0,-3.51,-9.19,-11.55,0,*51
1486807691.41,9429,10.44,73788.8,-3.53,-9.31,-11.59,0,*54
1486807692.64,9430,10.38,73780.3,-3.53,-9.23,-11.59,0,*5F
1486807693.88,9431,10.44,73788.3,-3.55,-9.31,-11.59,0,*5B
1486807695.11,9432,10.44,73784.8,-3.53,-9.31,-11.59,0,*5E
1486807696.36,9433,10.44,73784.5,-3.53,-9.37,-11.59,0,*59
1486807697.59,9434,10.44,73784.3,-3.53,-9.31,-11.59,0,*58
1486807698.84,9435,10.44,73784.3,-3.53,-9.37,-11.59,0,*5F
1486807700.06,9436,10.44,73784.8,-3.53,-9.31,-11.59,0,*5A
1486807701.31,9437,10.44,73786.8,-3.53,-9.41,-11.59,0,*5C
1486807702.54,9438,10.44,73788.8,-3.53,-9.23,-11.59,0,*57
1486807703.79,9439,10.44,73784.0,-3.51,-9.27,-11.55,0,*5C
1486807705.04,9440,10.44,73786.5,-3.51,-9.19,-11.55,0,*5F
1486807706.27,9441,10.44,73784.3,-3.53,-9.31,-11.59,0,*5A
1486807707.49,9442,10.44,73788.0,-3.53,-9.23,-11.59,0,*5A
1486807708.72,9443,10.44,73788.0,-3.53,-9.19,-11.55,0,*5E
1486807710.01,9444,10.44,73790.0,-3.51,-9.15,-11.55,0,*57
1486807711.21,9445,10.44,73790.3,-3.53,-9.23,-11.45,0,*50
1486807712.44,9446,10.44,73788.0,-3.51,-9.05,-11.41,0,*51